Regional Weather Roundup
Issued by NWS Little Rock, AR

Home | Current Version | Previous Version | Text Only | Print | Product List | Glossary Off
Versions: 1 2 3 4 5 6 7 8 9 10 11 12 13 14 15 16 17 18 19 20 21 22 23 24 25 26 27 28 29 30 31 32 33 34 35 36 37 38 39 40 41 42 43 44 45 46 47 48 49 50

000
ASUS44 KLZK 270605
RWRLZK

WEATHER ROUNDUP FOR ARKANSAS
NATIONAL WEATHER SERVICE LITTLE ROCK AR
100 AM CDT FRI MAR 27 2015

NOTE: "FAIR" INDICATES FEW OR NO CLOUDS BELOW 12,000 FEET WITH NO
SIGNIFICANT WEATHER AND/OR OBSTRUCTIONS TO VISIBILITY.

ARZ001-003-010-029-270700-
NORTHWEST ARKANSAS

CITY           SKY/WX    TMP DP  RH WIND       PRES   REMARKS
FAYETTEVILLE   CLOUDY    38  36  92 CALM      30.05F
6HR MIN TEMP:  35; 6HR MAX TEMP:  51;

FORT SMITH     MOCLDY    46  35  65 CALM      30.05F
6HR MIN TEMP:  43; 6HR MAX TEMP:  57;

HARRISON       MOCLDY    39  30  70 CALM      30.05S
6HR MIN TEMP:  37; 6HR MAX TEMP:  50;

BENTONVILLE    CLOUDY    45  34  65 N6        30.09R
6HR MIN TEMP:  39; 6HR MAX TEMP:  52;

ROGERS         CLOUDY    41  33  73 N5        30.10R
6HR MIN TEMP:  38; 6HR MAX TEMP:  50;

SILOAM SPGS    CLOUDY    43  32  65 NE7       30.09R
6HR MIN TEMP:  39; 6HR MAX TEMP:  50;

HIGHFILL       CLOUDY    41  36  82 N6        30.08R
6HR MIN TEMP:  37; 6HR MAX TEMP:  51;

$$

ARZ004-005-016-270700-
NORTH CENTRAL ARKANSAS

CITY           SKY/WX    TMP DP  RH WIND       PRES   REMARKS
BATESVILLE     CLEAR     39  32  75 W3        30.06S
6HR MIN TEMP:  39; 6HR MAX TEMP:  54;

FLIPPIN        CLEAR     37  28  70 NW3       30.06R
6HR MIN TEMP:  37; 6HR MAX TEMP:  54;

MTN HOME       CLEAR     39  30  70 CALM      30.05R
6HR MIN TEMP:  36; 6HR MAX TEMP:  52;

$$

ARZ040-041-270700-
WEST CENTRAL ARKANSAS

CITY           SKY/WX    TMP DP  RH WIND       PRES   REMARKS
MENA           CLEAR     39  34  81 CALM      30.06F
MOUNT IDA      CLEAR     39  35  86 CALM      30.05F
6HR MIN TEMP:  39; 6HR MAX TEMP:  57;

$$

ARZ009-017-025-026-028-270700-
NORTHEAST ARKANSAS

CITY           SKY/WX    TMP DP  RH WIND       PRES   REMARKS
CORNING          N/A     39  39 100 SE3       30.06F
JONESBORO      CLEAR     35  35 100 CALM      30.05F
6HR MIN TEMP:  35; 6HR MAX TEMP:  49;

NEWPORT        CLEAR     42  41  97 E6        30.06F
6HR MIN TEMP:  42; 6HR MAX TEMP:  51;

BLYTHEVILLE    CLEAR     37  35  92 CALM      30.06F
6HR MIN TEMP:  37; 6HR MAX TEMP:  46;

$$

ARZ022-023-033-042-044-270700-
CENTRAL ARKANSAS

CITY           SKY/WX    TMP DP  RH WIND       PRES   REMARKS
LITTLE ROCK    CLEAR     45  33  63 CALM      30.07F
6HR MIN TEMP:  43; 6HR MAX TEMP:  55;

N LITTLE ROCK    N/A     45  35  67 NW6       30.07F
6HR MIN TEMP:  45; 6HR MAX TEMP:  53;

SEARCY         CLEAR     36  35  96 CALM      30.07
6HR MIN TEMP:  36; 6HR MAX TEMP:  53;

HOT SPRINGS    CLEAR     41  38  89 CALM      30.08S
6HR MIN TEMP:  40; 6HR MAX TEMP:  58;

RUSSELLVILLE   CLEAR     38  36  92 CALM      30.06F
6HR MIN TEMP:  38; 6HR MAX TEMP:  58;

CLINTON        FAIR      36  34  93 CALM      30.08F FOG
$$

ARZ036-270700-
EAST ARKANSAS

CITY           SKY/WX    TMP DP  RH WIND       PRES   REMARKS
WEST MEMPHIS   CLEAR     38  37  97 CALM      30.06S
6HR MIN TEMP:  38; 6HR MAX TEMP:  47;

$$

ARZ050-053-066-070-073-270700-
SOUTHWEST ARKANSAS

CITY           SKY/WX    TMP DP  RH WIND       PRES   REMARKS
ARKADELPHIA    FAIR      42  42 100 CALM      30.09F
6HR MIN TEMP:  42; 6HR MAX TEMP:  59;

CAMDEN         CLEAR     39  37  93 CALM      30.09F FOG
TEXARKANA      CLEAR     48  34  58 NW5       30.10F
6HR MIN TEMP:  47; 6HR MAX TEMP:  61;

EL DORADO      CLEAR     41  39  93 CALM      30.09S
6HR MIN TEMP:  40; 6HR MAX TEMP:  55;

$$

ARZ056-057-069-270700-
SOUTHEAST ARKANSAS

CITY           SKY/WX    TMP DP  RH WIND       PRES   REMARKS
PINE BLUFF     CLEAR     42  41  96 CALM      30.07F
6HR MIN TEMP:  41; 6HR MAX TEMP:  51;

STUTTGART      CLEAR     45  39  81 SE5       30.07F
6HR MIN TEMP:  45; 6HR MAX TEMP:  52;

MONTICELLO     CLEAR     38  36  92 CALM      30.07S
6HR MIN TEMP:  38; 6HR MAX TEMP:  52; 6HR PCP:  0.01;


$$




USA.gov is the U.S. government's official web portal to all federal, state and local government web resources and services.